Location: Cornospital
(48.0620°N, 3.3837°W)
Time: 21:41:49
(UTC+00:00)

GENESIS II - Pass Details

Date: 31 October 2021
Orbit: 494 x 529 km, 64.5° (Epoch: 28 November)

Event Time Altitude Azimuth Distance (km) Brightness Sun altitude
Rises 17:20:48 0° 317° (NW) 2,639 8.2 -4.7°
Reaches altitude 10° 17:23:00 10° 312° (NW) 1,754 7.4 -5.1°
Maximum altitude 17:26:49 50° 237° (WSW) 671 5.3 -5.7°
Drops below altitude 10° 17:30:38 10° 162° (SSE) 1,759 6.9 -6.3°
Sets 17:32:51 0° 157° (SSE) 2,647 7.7 -6.6°
